Wetbulb
57.32 57.78 57.88 58.75 59.43 58.98 58.76 58.92 60.59 60.74 61.22 60.50 60.14 60.91 63.34 63.24 62.79 60.16 54.87 59.89 61.07 64.30 63.46 58.63 55.02 53.39 55.60 52.59 54.04 52.47 44.86 42.48 45.39 46.55 46.91 49.31 47.95 50.59 52.18 52.52 53.95 56.78 56.12 58.51 62.01
57.71 57.92 57.44 58.14 59.04 59.48 58.98 58.79 59.54 60.23 60.41 60.59 59.72 58.86 61.93 62.72 59.37 56.43 61.90 64.63 65.49 64.80 59.94 54.99 52.15 51.51 49.41 51.04 52.31 49.68 45.00 46.01 49.08 45.17 44.61 49.01 48.36 49.64 49.34 50.87 51.88 56.76 59.92 61.09 61.72
57.37 57.58 57.45 57.82 58.53 59.10 59.36 59.22 58.99 59.65 60.31 60.14 59.81 59.01 57.56 61.89 55.52 55.16 63.70 65.46 64.95 63.81 61.09 58.08 54.88 51.63 48.12 49.86 50.45 49.74 47.49 49.44 47.68 47.45 46.98 48.80 48.11 49.74 48.54 47.35 52.12 54.54 58.40 59.33 60.35
56.96 57.05 57.30 57.66 58.02 58.67 59.30 59.16 58.96 58.95 59.51 59.79 59.76 59.19 58.94 59.27 47.10 57.24 63.56 64.69 64.61 59.86 57.71 56.75 53.18 49.61 48.26 47.67 49.49 46.73 50.96 49.57 48.96 48.05 47.18 45.82 48.32 47.89 48.28 48.20 52.25 59.14 59.87 59.87 60.58
56.33 56.24 56.68 57.07 57.55 57.94 58.74 59.07 59.08 58.88 59.12 59.52 59.67 58.54 55.97 54.07 53.05 60.66 62.91 63.73 61.14 56.79 54.39 53.62 53.09 51.10 48.39 50.24 50.95 49.40 50.79 47.44 48.45 48.95 46.67 47.56 46.40 46.79 47.07 48.05 55.30 59.85 58.80 58.61 60.25
55.86 56.01 56.00 56.27 56.95 57.06 58.15 58.82 58.58 58.80 58.66 59.41 59.44 57.64 54.85 49.53 59.48 60.87 61.57 59.95 57.22 55.05 53.30 54.20 54.02 55.87 52.03 50.65 49.37 51.04 51.52 47.63 48.13 47.62 45.83 45.88 46.32 45.79 47.48 52.27 57.64 58.09 57.11 58.21 59.28
55.47 55.60 55.56 55.93 56.65 57.04 57.53 58.16 58.34 58.38 58.57 58.37 58.59 55.18 49.40 49.23 59.59 59.68 59.79 57.36 56.40 55.76 52.58 55.14 57.62 53.73 53.57 50.21 51.92 51.31 47.29 46.63 46.64 47.03 44.60 45.66 44.50 43.25 48.61 50.53 55.87 56.11 56.51 57.52 58.58
55.06 55.08 55.30 55.68 56.22 56.74 57.18 57.57 57.93 58.06 58.50 58.33 58.80 54.24 44.94 56.79 58.81 58.21 58.87 55.85 55.38 55.27 54.72 56.80 58.12 54.20 52.62 51.99 49.67 47.23 46.31 42.27 46.38 45.75 45.37 44.37 42.48 48.99 49.11 47.42 51.31 53.82 54.88 57.26 58.20
54.52 54.63 54.99 55.39 55.76 56.22 56.94 57.47 57.37 58.00 57.67 57.96 53.88 49.93 43.83 58.95 55.52 57.12 57.57 53.56 54.10 55.26 55.26 57.03 56.44 51.59 49.54 45.60 42.40 43.68 38.82 41.43 43.26 45.03 41.90 43.16 42.75 47.61 48.28 47.63 46.71 49.90 53.63 56.60 57.73
54.04 54.25 54.74 55.26 55.78 56.33 56.76 57.22 57.27 56.00 54.74 54.74 53.20 46.20 47.43 48.43 55.75 56.56 56.83 55.62 53.31 53.07 51.51 50.73 49.83 47.42 46.63 43.18 37.95 38.59 41.52 41.38 42.00 43.29 41.47 39.80 39.90 44.07 44.92 45.18 45.69 45.89 48.97 54.47 56.62
53.72 54.40 55.03 55.29 55.60 56.19 55.05 52.33 47.82 46.53 48.29 45.15 46.12 44.87 47.90 50.86 57.26 53.81 55.86 54.37 52.66 50.07 45.17 47.81 45.12 42.69 45.11 45.31 47.13 43.72 42.84 42.57 43.19 44.99 40.61 40.05 39.48 42.76 44.65 42.30 42.51 44.08 44.51 49.31 54.92
54.23 54.32 54.56 54.96 55.11 55.48 51.68 47.13 47.41 48.94 42.74 47.50 47.89 47.58 49.18 52.44 49.66 51.14 55.99 49.51 48.38 43.91 45.72 44.53 41.99 45.98 47.75 47.04 46.37 44.35 43.79 41.72 43.32 43.82 41.90 40.52 40.38 42.93 44.96 44.21 43.17 43.91 44.15 44.76 51.72
54.15 53.96 53.80 53.94 53.84 52.12 48.44 45.98 51.78 51.73 41.34 44.25 47.57 45.14 48.41 49.82 48.56 48.77 52.53 49.92 46.54 43.54 44.18 40.82 43.22 48.48 46.94 45.21 44.21 46.40 44.00 43.22 41.06 42.01 41.94 39.39 39.41 41.48 45.34 47.80 48.16 46.50 46.15 46.45 46.50
53.90 53.74 53.34 53.22 48.38 46.36 44.00 48.92 51.44 52.44 34.24 36.45 41.75 44.08 47.80 49.79 46.21 53.04 53.91 50.14 46.65 42.75 43.93 43.66 46.98 46.29 45.73 44.42 45.87 42.42 48.19 47.51 41.27 41.17 36.49 41.33 34.08 38.98 44.56 45.64 47.76 49.79 47.71 47.28 46.21
53.31 53.68 53.39 51.75 45.36 42.54 46.25 50.74 51.58 49.57 22.56 38.45 42.36 49.19 48.33 46.48 47.79 49.20 54.28 47.87 44.01 44.06 44.66 40.34 44.02 43.79 44.39 44.75 47.91 44.93 44.54 41.97 41.27 35.78 35.21 33.66 32.45 35.79 40.40 42.42 46.15 48.61 49.37 47.51 46.18
52.80 52.73 52.80 49.63 47.77 49.14 49.36 49.91 47.95 30.59 23.15 35.86 42.68 42.83 41.07 46.09 46.58 49.55 48.28 47.92 48.73 44.97 44.02 42.00 47.24 46.85 46.10 45.49 47.09 42.08 41.18 40.46 38.52 37.57 32.67 34.41 34.79 34.00 38.19 41.62 43.44 46.20 48.63 49.35 47.17
52.26 52.21 49.61 48.38 42.57 47.95 48.04 42.64 28.87 24.63 34.74 30.62 34.76 42.06 40.92 41.55 43.30 45.32 42.95 41.62 39.73 36.65 37.74 41.29 43.25 44.59 47.11 40.11 42.16 41.70 40.92 31.96 31.02 31.40 30.91 33.52 32.15 38.28 41.40 43.20 43.68 44.15 44.83 46.95 48.08
51.59 50.86 49.44 48.25 46.45 45.40 42.36 32.29 22.09 30.83 29.93 35.57 37.75 41.55 39.02 41.11 41.49 43.18 40.97 39.19 40.78 40.06 37.84 35.39 35.29 42.47 44.84 41.75 38.32 39.92 41.27 33.80 26.58 26.64 27.78 29.00 29.87 35.47 42.91 45.79 43.95 43.48 42.60 43.42 42.58
50.50 43.54 45.03 46.86 46.00 44.58 34.79 25.27 25.69 31.95 35.12 34.79 38.62 37.13 34.97 40.09 39.88 41.07 38.84 39.25 40.36 41.68 35.74 35.33 34.02 40.84 44.70 43.12 43.16 38.03 37.05 39.00 28.32 19.53 25.03 28.42 32.56 38.38 41.21 41.23 40.14 39.65 39.80 41.13 41.13
40.33 39.36 41.13 44.62 44.86 40.91 30.81 27.17 30.43 36.00 35.20 37.12 34.85 37.34 31.94 33.14 36.49 38.69 37.76 41.82 38.68 42.73 42.31 37.71 31.32 39.46 41.62 43.00 42.63 41.95 41.64 34.29 32.47 21.13 20.30 26.24 27.13 31.86 35.58 38.73 40.52 39.58 39.66 40.50 40.89
39.45 33.29 43.02 44.41 43.06 34.63 25.11 28.01 32.64 37.39 36.94 33.96 36.77 36.36 35.04 33.73 36.54 37.09 37.40 40.91 42.05 41.62 42.00 37.44 34.19 33.08 39.48 38.26 36.42 37.02 37.46 36.64 35.08 30.65 24.22 23.04 27.81 36.18 38.78 38.84 39.57 39.92 40.14 40.94 40.20
35.80 28.29 42.78 45.39 30.86 30.24 26.71 31.72 36.89 35.39 38.43 36.44 38.34 39.54 36.36 37.94 35.97 36.88 36.96 39.60 44.05 43.45 38.27 37.69 33.24 30.71 34.53 36.27 41.00 39.60 40.17 38.04 34.29 29.05 29.52 28.54 29.05 38.43 38.50 38.49 39.26 38.95 39.11 38.80 39.12
31.56 33.99 43.09 43.23 25.42 26.13 31.09 32.73 34.85 33.64 33.54 35.12 35.73 41.62 40.88 37.99 34.42 37.34 39.25 40.72 43.61 42.67 38.45 37.60 31.62 28.01 29.52 33.24 36.12 36.72 38.26 39.09 36.03 32.90 28.50 26.46 28.87 37.62 36.06 36.77 37.15 38.43 38.89 39.86 40.30
34.24 28.62 33.30 36.33 34.43 27.87 26.98 28.88 30.47 37.56 35.83 36.84 35.72 41.72 39.43 38.16 38.92 37.24 37.84 40.15 43.77 44.06 41.79 39.87 33.77 31.43 29.73 34.23 34.72 33.21 35.61 37.20 34.94 27.68 28.26 31.65 32.13 33.96 36.77 37.15 36.90 37.82 38.96 39.18 39.88
31.74 29.05 30.47 27.48 29.77 30.85 30.13 31.73 30.50 31.15 36.84 38.09 35.26 39.24 38.34 35.88 36.87 36.80 39.18 39.93 43.28 43.38 39.88 37.86 28.91 32.51 33.99 34.90 35.74 36.13 35.62 36.52 35.44 36.25 33.14 36.07 35.09 37.42 37.60 37.54 37.75 38.63 38.15 38.89 39.39
28.77 32.25 33.20 32.12 31.75 30.63 30.33 27.90 29.70 31.76 33.81 34.09 33.87 39.35 39.89 37.33 38.02 36.38 39.14 39.31 38.87 38.63 39.07 37.81 28.94 31.02 26.11 34.10 35.20 34.35 36.95 37.93 38.08 38.49 37.18 35.11 34.67 41.29 41.49 38.73 37.93 38.64 39.38 40.14 40.53
34.04 34.85 32.95 32.47 31.28 28.31 28.30 29.41 30.80 34.54 36.74 37.89 38.67 39.11 38.77 40.75 42.58 43.94 44.01 41.64 42.03 40.00 37.82 34.66 30.38 27.98 21.99 29.73 30.84 25.20 34.15 36.52 37.92 39.55 38.86 33.74 39.37 39.49 39.39 39.84 38.42 38.78 39.81 40.17 40.00
MSLP
1011.07 1011.66 1012.04 1012.53 1012.91 1013.22 1013.51 1013.99 1014.21 1014.39 1014.52 1014.35 1014.96 1015.73 1015.99 1016.65 1017.30 1017.78 1017.55 1016.57 1016.71 1016.69 1016.85 1017.67 1017.98 1018.45 1018.70 1019.58 1019.90 1019.39 1019.03 1018.21 1017.32 1016.36 1015.63 1015.05 1015.21 1015.55 1015.99 1016.56 1017.47 1018.36 1018.89 1018.81 1019.60
1010.66 1011.07 1011.62 1012.11 1012.46 1012.68 1013.00 1013.54 1013.88 1014.19 1014.48 1014.34 1014.53 1015.25 1015.99 1016.57 1017.24 1016.91 1016.54 1016.45 1016.53 1016.67 1016.73 1017.63 1018.34 1018.71 1019.44 1020.22 1020.34 1020.18 1019.40 1018.15 1017.17 1016.52 1016.10 1015.38 1015.40 1015.74 1016.46 1017.17 1018.23 1019.06 1019.29 1019.30 1019.80
1010.11 1010.55 1011.05 1011.69 1011.94 1012.28 1012.62 1013.16 1013.51 1013.82 1014.19 1014.61 1014.10 1014.85 1015.88 1016.56 1016.74 1015.35 1015.95 1016.15 1016.41 1016.48 1016.57 1017.28 1017.99 1018.67 1019.59 1020.19 1020.62 1020.34 1019.18 1018.19 1017.62 1016.99 1016.31 1015.90 1015.63 1015.76 1016.36 1017.38 1017.67 1018.71 1019.54 1019.94 1020.18
1009.39 1009.88 1010.47 1011.01 1011.53 1011.85 1012.18 1012.67 1013.13 1013.60 1014.01 1014.30 1014.30 1014.14 1015.97 1016.36 1015.01 1013.67 1014.18 1015.48 1016.00 1016.37 1016.70 1017.28 1018.18 1018.99 1019.56 1019.96 1020.00 1020.15 1019.02 1018.72 1017.96 1017.27 1016.66 1016.42 1015.90 1015.98 1016.46 1016.63 1016.77 1017.78 1018.83 1019.79 1020.05
1008.65 1009.17 1009.70 1010.33 1010.99 1011.37 1011.66 1012.16 1012.63 1013.29 1013.77 1014.03 1014.33 1014.39 1015.79 1015.19 1013.57 1012.57 1013.31 1014.37 1015.55 1016.37 1016.54 1016.99 1017.85 1018.41 1018.85 1019.27 1019.53 1019.66 1019.10 1019.01 1018.37 1017.67 1017.00 1016.77 1016.27 1016.18 1016.40 1016.55 1016.78 1018.12 1019.05 1019.60 1020.01
1007.95 1008.58 1009.23 1009.99 1010.55 1010.96 1011.12 1011.75 1012.34 1012.86 1013.29 1013.79 1014.23 1015.01 1015.17 1013.82 1013.29 1013.07 1013.65 1014.73 1015.26 1015.88 1016.33 1016.55 1017.15 1017.65 1018.07 1018.60 1018.83 1018.54 1018.78 1018.76 1018.72 1017.91 1017.61 1017.32 1016.48 1016.31 1016.34 1016.88 1017.71 1018.31 1019.09 1019.55 1019.70
1007.33 1007.99 1008.62 1009.45 1010.17 1010.60 1011.01 1011.34 1011.87 1012.40 1013.02 1013.59 1014.02 1014.92 1014.58 1012.92 1013.19 1012.78 1013.66 1013.91 1014.95 1015.61 1015.86 1015.98 1016.36 1017.28 1017.65 1018.18 1018.16 1018.28 1018.95 1019.00 1018.69 1018.37 1018.10 1017.70 1017.18 1016.43 1016.22 1017.03 1017.90 1018.59 1019.10 1019.51 1019.53
1006.71 1007.38 1008.08 1008.94 1009.61 1010.06 1010.52 1010.97 1011.33 1011.99 1012.60 1013.47 1013.97 1014.87 1013.88 1012.71 1013.26 1012.51 1013.35 1014.25 1014.89 1015.73 1016.03 1015.89 1016.13 1017.17 1017.66 1017.89 1018.04 1018.39 1018.83 1019.02 1018.46 1018.43 1017.96 1018.15 1016.92 1016.37 1016.19 1017.01 1017.84 1018.42 1018.97 1019.17 1019.28
1006.08 1006.78 1007.54 1008.29 1008.94 1009.52 1010.03 1010.37 1010.93 1011.67 1012.42 1013.10 1014.04 1014.47 1012.91 1012.10 1013.15 1012.00 1012.47 1013.64 1014.89 1016.10 1016.56 1016.17 1016.29 1017.58 1018.18 1018.44 1018.45 1018.36 1018.49 1018.70 1018.43 1017.91 1017.90 1017.95 1016.92 1016.07 1016.00 1016.36 1017.31 1017.82 1018.28 1018.43 1018.69
1005.45 1006.29 1007.08 1007.80 1008.36 1008.94 1009.45 1009.92 1010.71 1011.65 1012.37 1013.17 1013.50 1014.44 1012.94 1011.61 1012.20 1011.91 1012.27 1013.33 1014.72 1016.14 1017.02 1016.71 1016.94 1017.65 1018.12 1017.67 1017.06 1017.85 1018.40 1018.15 1017.92 1017.84 1018.02 1017.87 1016.93 1016.39 1015.99 1016.22 1016.80 1017.04 1017.35 1017.63 1017.75
1004.80 1005.64 1006.40 1007.08 1007.66 1008.21 1008.98 1010.27 1011.07 1011.40 1011.63 1010.22 1010.39 1010.46 1010.46 1010.89 1011.71 1010.91 1011.44 1013.56 1014.80 1015.81 1016.35 1016.50 1016.53 1015.61 1016.47 1017.11 1017.15 1017.47 1017.64 1017.43 1016.89 1017.09 1017.44 1017.24 1017.31 1016.56 1016.21 1016.27 1016.39 1016.57 1016.67 1017.03 1016.65
1004.22 1005.12 1005.87 1006.59 1007.12 1007.70 1008.44 1008.69 1008.84 1009.10 1010.04 1010.28 1010.60 1010.32 1010.19 1011.04 1010.89 1011.08 1010.08 1012.53 1013.87 1014.70 1016.15 1016.70 1014.57 1015.22 1016.45 1016.99 1017.11 1017.12 1017.15 1017.18 1016.83 1016.69 1017.40 1017.38 1017.10 1016.72 1016.13 1015.80 1015.71 1015.79 1015.82 1015.87 1016.07
1003.55 1004.64 1005.53 1006.24 1006.86 1007.70 1008.06 1008.30 1008.55 1009.18 1010.02 1009.03 1009.26 1009.73 1009.95 1010.75 1009.90 1009.99 1009.07 1010.50 1012.21 1013.59 1014.25 1014.37 1013.71 1014.96 1015.72 1016.58 1016.91 1017.07 1016.72 1016.98 1016.82 1017.28 1017.46 1017.59 1017.40 1016.47 1015.60 1015.23 1014.86 1014.61 1014.47 1014.61 1014.84
1003.07 1004.10 1005.08 1006.01 1007.60 1007.73 1008.19 1008.52 1008.92 1009.88 1009.41 1008.24 1007.83 1007.76 1009.63 1009.52 1008.27 1009.29 1009.09 1009.67 1011.59 1012.22 1013.55 1014.31 1014.43 1014.18 1014.91 1015.43 1016.53 1016.83 1016.77 1017.18 1017.64 1017.18 1017.77 1017.72 1017.41 1015.87 1014.83 1014.19 1013.74 1013.41 1013.71 1013.87 1014.15
1002.79 1003.72 1004.73 1005.79 1006.53 1007.47 1007.61 1007.99 1008.94 1009.88 1008.14 1006.21 1006.38 1006.25 1007.36 1007.78 1006.71 1007.90 1008.47 1009.27 1009.79 1010.66 1012.41 1012.66 1013.22 1013.37 1014.04 1014.11 1015.80 1016.77 1016.70 1017.58 1017.95 1017.56 1018.03 1018.22 1018.04 1015.25 1014.27 1013.75 1013.14 1012.73 1012.83 1013.09 1013.42
1002.51 1003.49 1004.53 1005.55 1006.36 1007.30 1007.39 1008.09 1009.22 1009.35 1006.05 1005.36 1004.91 1004.97 1007.16 1006.91 1006.19 1007.14 1007.70 1008.32 1009.37 1011.11 1012.31 1013.06 1013.18 1013.84 1013.57 1015.15 1015.59 1017.27 1017.26 1018.01 1018.40 1018.50 1018.74 1017.82 1017.39 1015.33 1014.03 1012.58 1012.13 1012.04 1012.15 1012.40 1012.82
1002.43 1003.32 1004.67 1005.33 1006.60 1007.19 1007.53 1008.48 1008.90 1007.47 1006.21 1005.26 1004.21 1003.89 1004.45 1005.26 1005.16 1005.19 1006.14 1007.29 1007.93 1009.91 1011.19 1012.70 1013.09 1013.31 1013.46 1015.28 1016.59 1016.43 1017.47 1018.72 1019.84 1019.10 1018.28 1017.49 1017.08 1014.60 1012.88 1011.98 1011.63 1011.75 1011.83 1011.90 1012.26
1002.47 1003.48 1004.56 1005.46 1006.61 1007.20 1008.11 1009.54 1008.28 1006.54 1006.28 1005.09 1003.92 1004.28 1003.70 1004.68 1004.85 1004.25 1005.85 1006.68 1007.69 1007.78 1009.74 1010.52 1012.75 1012.60 1012.75 1013.23 1014.11 1015.58 1016.16 1016.75 1017.93 1018.79 1018.51 1018.02 1016.34 1013.52 1011.94 1011.30 1011.25 1011.10 1011.22 1011.77 1011.79
1002.42 1003.90 1004.95 1006.01 1006.65 1007.25 1008.75 1008.59 1007.60 1006.80 1005.62 1005.07 1004.37 1003.50 1003.34 1003.41 1003.85 1004.51 1004.75 1005.37 1005.84 1006.19 1007.92 1009.35 1011.42 1012.05 1012.35 1012.74 1013.63 1015.18 1015.44 1015.69 1017.17 1019.00 1018.46 1017.15 1015.21 1013.38 1011.48 1011.46 1011.25 1011.12 1011.16 1011.35 1011.52
1002.41 1004.12 1005.55 1006.11 1006.51 1007.66 1008.73 1007.93 1007.33 1006.77 1006.38 1005.34 1002.89 1002.51 1002.05 1002.76 1003.08 1003.63 1004.49 1004.80 1005.06 1005.66 1006.40 1007.96 1010.69 1011.73 1012.74 1013.18 1013.59 1013.45 1014.69 1015.32 1016.12 1017.87 1018.10 1016.60 1015.07 1012.89 1011.65 1011.14 1011.01 1011.20 1011.25 1011.42 1011.50
1002.45 1004.39 1005.88 1006.10 1006.39 1007.72 1008.05 1007.17 1006.36 1005.69 1006.14 1005.35 1002.24 1001.75 1001.33 1001.58 1002.22 1002.63 1003.21 1003.82 1003.67 1004.96 1006.10 1007.23 1009.44 1012.28 1012.61 1012.87 1012.26 1013.35 1013.27 1013.70 1014.36 1015.79 1016.02 1015.82 1013.78 1011.47 1010.87 1010.73 1010.73 1010.96 1011.08 1011.34 1011.81
1002.53 1004.44 1005.68 1005.75 1007.03 1007.47 1007.03 1006.21 1005.40 1005.50 1005.48 1004.76 1002.80 1001.10 1000.97 1001.01 1001.75 1001.62 1001.73 1000.27 1002.06 1003.23 1005.08 1006.95 1009.27 1011.67 1012.29 1012.56 1011.88 1012.02 1012.29 1012.64 1013.52 1014.83 1015.09 1014.51 1012.73 1010.71 1010.40 1010.58 1010.46 1011.07 1011.50 1011.68 1012.00
1002.97 1004.43 1005.69 1005.53 1006.52 1006.83 1006.16 1005.38 1004.14 1004.42 1004.50 1003.92 1001.98 999.97 999.57 1000.04 1000.84 1001.23 1001.60 1001.03 1001.96 1003.03 1003.93 1005.75 1008.73 1011.33 1012.86 1013.16 1012.40 1012.08 1011.70 1011.69 1012.38 1013.58 1014.07 1014.00 1012.14 1010.71 1010.64 1010.60 1010.76 1011.10 1011.53 1011.77 1012.10
1002.69 1004.48 1005.42 1005.56 1005.71 1005.96 1005.66 1005.07 1004.60 1003.78 1003.26 1002.58 1001.61 999.40 998.93 999.29 999.43 1000.65 1001.01 1001.37 1001.79 1003.07 1004.07 1005.20 1007.56 1008.24 1008.19 1006.92 1009.41 1011.00 1011.11 1011.41 1011.75 1012.87 1012.75 1012.03 1011.79 1011.13 1010.95 1010.78 1010.92 1011.12 1011.38 1011.66 1012.06
1001.45 1003.05 1003.48 1004.64 1004.54 1004.66 1004.49 1004.06 1003.60 1003.15 1002.26 1001.66 1000.52 998.57 997.09 997.84 998.77 999.63 1000.78 1001.89 1002.71 1003.43 1004.43 1005.21 1007.30 1008.39 1008.77 1009.20 1009.92 1010.58 1010.99 1011.33 1011.48 1011.28 1011.66 1010.13 1010.95 1010.42 1010.23 1010.40 1010.40 1010.50 1010.99 1011.29 1011.51
1001.59 1002.31 1003.40 1003.89 1004.52 1005.01 1004.68 1003.91 1003.58 1002.78 1002.16 1000.67 1000.00 998.00 996.62 996.41 996.20 997.48 999.46 1000.95 1001.41 1003.59 1005.10 1005.65 1007.51 1008.55 1009.88 1009.64 1009.81 1010.20 1010.22 1010.02 1009.51 1009.41 1009.69 1009.69 1009.74 1009.24 1009.17 1009.67 1010.13 1010.18 1010.49 1010.63 1010.72
1001.66 1001.79 1002.22 1003.17 1003.81 1004.16 1003.46 1003.20 1002.76 1002.75 1000.71 999.79 999.07 998.12 996.51 995.31 996.38 997.53 998.48 999.65 1000.28 1000.80 1003.13 1005.37 1006.71 1008.41 1010.33 1010.46 1010.96 1011.19 1008.47 1007.95 1007.58 1008.40 1007.71 1008.82 1007.03 1008.52 1008.74 1009.05 1009.48 1009.78 1009.81 1009.98 1010.22
Wind_Speed
17 15 15 17 17 16 14 13 14 12 11 14 9 7 11 11 8 6 7 7 5 9 9 7 3 4 3 5 3 6 1 3 4 3 4 5 3 3 2 7 5 5 3 6 13
18 17 16 17 17 16 15 14 13 13 11 13 13 7 4 10 8 12 8 13 10 12 7 8 6 6 4 3 3 3 3 5 4 3 2 3 4 6 5 4 4 5 8 12 9
20 18 17 17 16 17 17 15 13 13 13 12 15 11 4 11 10 9 17 12 12 9 7 7 7 4 4 3 4 4 5 4 1 3 4 4 4 2 8 2 8 9 13 10 8
21 19 19 17 17 18 18 17 15 13 14 13 12 15 2 11 9 11 28 21 16 9 7 8 6 6 5 6 6 2 7 2 7 4 3 4 3 4 5 5 5 18 18 14 15
22 21 18 18 17 18 17 18 17 16 15 14 11 14 5 11 16 3 23 23 16 11 12 8 9 7 8 5 6 3 5 4 5 6 3 5 3 3 5 1 10 16 15 15 13
21 20 18 18 18 19 17 19 19 17 15 15 12 9 3 21 8 8 18 15 11 15 10 9 9 8 4 6 10 9 10 3 4 3 5 4 4 4 3 8 13 17 14 14 16
21 20 19 18 18 18 19 20 21 18 17 17 11 3 7 12 12 12 18 18 13 14 14 10 7 9 6 1 7 4 6 4 5 5 4 1 6 6 5 8 12 11 11 12 14
21 19 18 18 18 19 19 20 20 18 16 17 15 2 11 4 15 15 17 11 10 4 2 7 7 5 3 3 2 6 5 4 5 8 6 7 14 8 8 9 11 11 11 13 14
21 19 17 17 18 20 19 18 18 17 17 15 9 6 12 2 14 15 15 18 10 6 2 4 8 4 3 5 3 4 4 6 3 11 4 8 7 10 8 12 11 10 12 13 12
21 18 17 18 19 20 18 17 16 14 10 8 4 6 5 18 22 19 15 20 12 12 3 4 5 6 5 9 12 6 4 7 8 8 5 7 8 6 5 7 10 10 10 13 14
19 16 17 18 16 16 13 6 7 7 11 14 8 9 1 19 17 19 25 20 10 13 11 6 8 22 14 16 5 12 9 10 9 8 8 15 7 12 8 6 8 9 8 10 17
20 18 16 18 18 17 8 9 11 5 12 26 12 24 18 8 19 23 33 17 19 19 10 8 24 17 12 14 13 8 14 8 3 8 9 6 14 8 9 8 9 10 10 10 10
24 20 17 16 14 10 12 9 4 6 3 14 20 25 12 20 25 27 34 18 26 26 24 21 12 16 13 14 15 10 12 7 5 5 1 3 6 8 9 15 10 13 9 10 13
21 22 20 19 9 5 3 8 6 5 5 7 22 14 8 18 19 31 27 21 12 29 24 14 10 20 19 18 15 17 8 5 7 12 5 6 6 6 12 15 17 20 12 15 11
21 22 22 17 8 5 3 10 10 5 8 15 14 14 12 18 20 32 28 4 26 19 13 15 20 26 21 25 18 6 7 9 4 4 4 3 1 8 4 10 18 18 15 11 11
22 19 25 8 3 4 9 8 7 8 10 9 11 22 28 22 29 36 22 4 9 13 7 5 4 13 11 3 10 11 7 8 6 3 4 8 7 6 5 7 4 8 13 13 11
21 19 13 6 5 3 7 3 4 9 5 4 8 12 43 15 23 39 22 20 15 19 15 6 9 2 14 12 5 7 11 3 3 4 8 3 5 10 8 6 4 5 7 9 10
20 19 8 6 8 6 5 2 5 5 8 2 8 21 23 28 23 29 26 25 9 12 21 20 13 17 8 10 14 12 9 6 8 6 5 1 8 8 10 11 6 5 4 5 6
20 4 6 9 9 7 4 4 4 3 0 5 15 28 9 24 11 22 19 25 13 20 16 17 7 6 14 6 16 6 6 4 7 2 4 5 6 8 9 8 5 6 4 7 5
5 5 4 12 9 6 2 2 4 4 4 12 17 18 13 13 12 26 23 27 12 16 6 6 9 6 7 7 1 13 12 6 1 6 4 4 5 7 5 7 7 6 8 7 5
6 6 6 8 5 4 4 7 5 7 8 7 12 10 8 13 12 24 30 20 17 20 6 6 7 3 9 8 13 6 12 5 7 6 7 3 7 8 10 7 8 8 8 8 6
5 6 9 6 4 3 4 8 5 5 11 14 10 12 17 24 15 13 27 21 27 25 19 6 7 7 4 4 6 4 13 4 7 6 3 4 7 4 6 8 7 7 6 5 5
5 4 7 1 6 5 3 6 7 9 11 6 7 22 17 18 13 8 22 3 22 21 21 10 5 10 3 7 3 9 9 7 5 4 7 7 7 2 2 6 6 9 7 7 6
6 7 1 1 2 5 6 6 7 9 16 10 8 11 25 23 10 16 18 5 25 20 12 9 5 7 20 27 10 11 8 5 6 5 5 9 4 4 7 7 7 7 7 8 7
3 3 5 7 11 5 2 1 2 5 12 9 7 19 27 20 11 16 19 11 18 16 5 7 5 4 7 10 10 18 17 14 10 11 9 16 14 9 11 10 11 10 8 8 8
5 5 3 4 5 13 9 5 7 3 7 6 9 19 24 23 16 30 24 22 29 10 11 3 5 6 4 11 15 22 23 24 26 21 16 5 8 11 9 6 7 10 9 8 7
1 3 4 7 5 7 5 7 5 1 11 12 10 19 26 32 14 18 12 9 15 27 25 10 8 7 5 8 11 2 29 30 24 21 25 14 19 9 9 11 9 9 10 9 7
Wind_Direction
212 221 225 229 232 228 223 220 209 188 189 144 116 35 178 185 154 161 214 213 183 144 118 115 78 102 56 89 44 314 319 235 253 293 222 174 115 47 49 100 56 25 138 176 155
210 210 223 228 230 228 225 227 226 214 203 168 139 103 291 164 184 210 199 231 165 150 120 138 147 143 78 72 49 184 213 226 9 14 334 178 117 132 108 115 64 60 43 129 131
213 209 212 224 230 225 220 220 224 216 205 205 151 144 5 153 233 222 214 221 169 168 144 150 135 139 128 131 160 195 195 11 25 308 26 292 122 103 123 229 189 174 150 152 153
211 211 210 218 226 229 218 217 209 213 216 195 174 138 174 178 233 195 188 202 173 169 139 160 135 143 170 182 155 176 267 320 311 340 360 332 328 173 176 210 185 158 154 158 172
206 210 209 215 222 228 224 214 213 207 214 208 181 146 118 217 214 352 178 178 160 158 173 168 168 181 175 179 121 218 166 195 263 324 303 313 259 202 237 245 119 137 152 163 173
205 202 204 213 218 225 227 217 212 205 208 210 186 134 185 234 169 207 165 159 173 165 185 163 184 188 170 194 174 204 202 178 256 351 311 296 277 142 260 122 128 147 163 172 179
202 198 201 207 215 221 227 221 212 205 204 209 188 193 188 219 209 177 166 175 167 184 174 185 172 170 142 124 219 144 140 178 203 195 277 227 280 220 210 148 152 161 167 175 190
200 198 197 205 214 221 223 218 210 209 205 204 193 210 244 177 243 183 172 163 147 202 60 120 112 110 137 318 125 143 122 161 204 176 223 184 242 218 237 166 182 171 174 181 199
196 195 198 208 217 223 219 214 210 210 206 201 196 181 240 16 201 175 155 161 122 94 22 99 89 119 106 172 149 194 156 198 256 205 137 193 237 231 240 178 189 182 187 186 191
192 196 201 213 218 219 208 206 209 209 213 215 177 166 256 209 195 194 156 144 133 117 85 104 112 138 196 186 202 151 193 190 213 203 192 215 242 279 228 164 193 200 199 191 187
189 197 202 199 190 184 171 157 180 202 203 208 183 199 224 221 199 190 148 142 126 150 179 195 173 200 186 196 194 165 196 196 206 188 158 215 217 237 246 221 219 229 210 206 197
177 172 175 187 181 165 144 197 199 125 204 221 210 208 233 236 192 193 142 146 158 179 133 181 211 185 165 186 210 197 208 210 23 157 181 207 244 245 232 218 204 211 224 211 209
177 175 172 163 157 161 189 199 96 88 251 204 204 224 189 198 192 181 160 153 181 180 181 195 187 164 164 189 197 222 205 230 159 136 351 65 286 235 242 235 218 218 209 217 192
175 175 173 156 134 138 185 169 117 121 245 230 189 224 182 193 203 177 181 148 174 189 186 206 201 170 181 191 190 217 178 234 186 145 194 161 268 256 218 224 222 227 211 219 208
165 166 166 151 128 140 187 145 136 153 236 171 167 156 173 217 147 184 177 166 170 164 175 190 175 179 182 194 180 213 137 138 200 106 117 211 179 266 225 238 232 232 222 208 212
163 161 158 146 82 110 90 81 128 247 226 165 149 177 181 204 175 159 171 134 130 143 146 162 158 170 178 104 154 149 98 52 28 85 245 187 173 262 216 213 223 226 224 218 207
148 144 138 120 130 129 92 37 152 222 284 180 150 209 177 172 173 166 159 158 162 154 180 130 175 121 141 109 108 134 164 123 185 195 233 233 185 237 229 227 177 200 226 221 220
138 129 134 103 124 107 73 95 224 257 232 319 157 189 176 166 180 173 160 162 177 166 164 168 179 177 191 161 172 178 175 155 192 185 197 310 223 244 232 253 236 227 256 204 151
129 84 123 119 116 93 97 181 197 268 295 206 170 179 154 171 163 179 168 171 169 163 166 171 185 144 176 126 148 179 171 136 100 26 84 214 286 298 256 256 253 237 233 193 174
105 99 94 139 130 99 89 245 219 200 337 259 189 189 163 152 163 171 170 185 153 183 161 186 109 170 136 113 196 178 151 165 133 144 223 258 261 238 254 222 229 230 217 213 216
87 94 137 142 82 74 196 222 244 237 195 253 222 173 159 150 152 167 173 180 172 179 149 124 112 133 125 204 166 162 190 186 120 157 160 154 254 218 219 177 175 198 202 194 185
111 111 158 156 117 191 193 201 175 230 221 251 285 180 172 165 164 154 181 179 179 171 162 182 114 137 137 311 198 157 184 157 172 212 207 138 268 247 197 178 154 150 137 140 154
92 107 172 206 159 200 227 239 231 234 235 247 245 213 169 174 156 167 184 128 169 171 166 174 131 126 103 357 339 207 195 158 119 102 201 137 251 16 146 142 152 143 152 160 161
124 130 141 214 174 179 179 215 210 227 241 235 265 232 160 189 139 183 170 194 167 172 126 99 145 174 194 198 108 173 174 168 126 144 158 217 195 199 198 186 165 188 170 180 180
66 160 161 174 209 213 140 343 228 250 215 208 268 229 172 166 148 169 147 151 177 161 113 116 127 144 137 143 133 170 167 183 199 191 188 225 206 207 201 189 185 186 176 179 201
123 148 137 136 149 182 196 208 218 254 228 216 234 203 177 176 176 160 156 167 182 142 163 238 155 116 13 161 162 184 188 191 204 202 226 124 232 206 199 161 178 192 185 192 190
303 29 104 169 167 169 197 204 217 312 237 219 214 215 190 192 175 173 147 109 179 172 178 160 133 130 187 126 103 352 200 197 204 199 206 198 217 178 198 200 193 187 186 190 195